Location: Mahannah Oil Field
(37.4664°N, 96.6003°W)
Time: 02:06:03
(UTC+00:00)

Tiros 1 despin weight - Pass Details

Date: 30 January 2021
Orbit: 593 x 642 km, 48.2° (Epoch: 25 February)

Event Time Altitude Azimuth Distance (km) Brightness Sun altitude
Rises 16:32:07 0° 198° (SSW) 2,920 ? 27.4°
Reaches altitude 10° 16:34:53 10° 182° (S) 2,010 ? 27.7°
Maximum altitude 16:38:23 21° 133° (SE) 1,400 ? 28.1°
Drops below altitude 10° 16:41:52 10° 84° (E) 1,999 ? 28.5°
Sets 16:44:36 0° 68° (ENE) 2,900 ? 28.8°
